Flag for U.S.A. Weather past 2 weeks in Wailuku, Hawaii, U.S.A.

Now
74 °F

Sunny.


Feels Like: 75 °F
Forecast: 69 / 83 °F
Wind: No wind

Location: Kahului Airport

Current Time: Apr 1, 2015 at 8:55:18 AM

Latest Report: Apr 1, 2015 at 7:54 AM


Visibility: 10 mi

Pressure: 30.04 "Hg

Humidity: 74%

Dew point: 65 °F

Location of WailukuLocation

Historic Weather in Wailuku — Graph

°F

Wailuku temperature yesterday

Maximum temperature yesterday: 86 °F (at 12:54 PM)
Minimum temperature yesterday: 64 °F (at 4:54 AM)
Average temperature yesterday: 76 °F

Past Weeks' High & Low Weather Summary

 TemperatureHumidityPressure
High86 °F (Mar 31, 12:54 PM)94% (Mar 31, 4:54 AM)30.22 "Hg (Mar 31, 4:54 AM)
Low61 °F (Mar 18, 3:54 AM)9% (Mar 31, 1:54 PM)29.96 "Hg (Apr 1, 3:45 AM)
Average74 °F72%30.10 "Hg
* Reported Mar 17 7:54 AM — Apr 1 7:54 AM, Wailuku, Weather by CustomWeather, © 2015

Note: Actual official high and low records may vary slightly from our data, if they occured in-between our weather recording intervals... More about our weather records

Advertising

Wailuku weather history for previous 24 hours

 ConditionsComfort  
Time TempWeatherWind HumidityBarometerVisibility
7:54 AM
Wed, Apr 1
74 °FSunny.No wind74%30.04 "Hg10 mi
6:54 AM66 °FSunny.6 mph84%30.03 "Hg10 mi
5:54 AM66 °FPassing clouds.5 mph84%30.00 "Hg10 mi
4:54 AM65 °FClear.5 mph87%29.98 "Hg10 mi
3:54 AM67 °FPassing clouds.6 mph81%29.98 "Hg10 mi
3:45 AM68 °FPartly cloudy.6 mph78%29.96 "Hg10 mi
3:25 AM68 °FPassing clouds.No wind83%29.97 "Hg10 mi
2:54 AM67 °FPassing clouds.5 mph85%29.98 "Hg10 mi
2:31 AM66 °FOvercast.6 mph88%29.97 "Hg10 mi
2:07 AM66 °FPassing clouds.5 mph88%29.98 "Hg10 mi
2:03 AM66 °FPassing clouds.5 mph88%29.98 "Hg10 mi
1:54 AM67 °FPassing clouds.No wind87%30.00 "Hg10 mi
12:54 AM68 °FClear.5 mph87%30.02 "Hg10 mi
11:54 PM
Tue, Mar 31
70 °FClear.No wind84%30.04 "Hg10 mi
10:54 PM71 °FPassing clouds.No wind84%30.06 "Hg10 mi
9:54 PM73 °FPassing clouds.5 mph79%30.06 "Hg10 mi
8:54 PM74 °FPassing clouds.6 mph79%30.05 "Hg10 mi
7:54 PM75 °FPassing clouds.8 mph71%30.03 "Hg10 mi
6:54 PM77 °FPassing clouds.9 mph69%30.02 "Hg10 mi
5:54 PM80 °FPassing clouds.10 mph62%30.01 "Hg10 mi
4:54 PM83 °FPassing clouds.12 mph61%29.99 "Hg10 mi
3:54 PM83 °FScattered clouds.10 mph55%29.99 "Hg10 mi
2:54 PM85 °FScattered clouds.9 mph51%29.99 "Hg10 mi
1:54 PM85 °FScattered clouds.15 mph9%30.02 "Hg10 mi
1:23 PM84 °FScattered clouds.15 mph51%30.01 "Hg10 mi
1:14 PM84 °FScattered clouds.15 mph51%30.02 "Hg10 mi
12:54 PM86 °FScattered clouds.7 mph46%30.03 "Hg10 mi
12:35 PM84 °FScattered clouds.3 mph48%30.04 "Hg10 mi
11:54 AM85 °FScattered clouds.9 mph51%30.07 "Hg10 mi
10:54 AM83 °FPassing clouds.7 mph57%30.08 "Hg10 mi
9:54 AM80 °FPassing clouds.13 mph64%30.07 "Hg10 mi
9:29 AM81 °FPassing clouds.6 mph62%30.05 "Hg10 mi
8:54 AM77 °FPassing clouds.5 mph69%30.06 "Hg10 mi
Weather by CustomWeather, © 2015

See weather overviewHow to use our weather pages